CZ-6A DEB, 56596

Orbit data source: Space-Track

CZ-6A DEB, 56596 is space debris in SSO originally from a launch on Fri, 11 Nov 2022 UTC launched from the Taiyaun Space Center, China (TSC). Debris objects in space refer to the collection of defunct objects orbiting the Earth. Examples of debris include non-operational satellites, rocket bodies, and fragments generated from explosions, collisions, or faulty payload assembly.

Loading next visibility...
Identifier
56596, 2022-151ADU
Orbit
SSO
Country
Flag of CNCN / PRC
Related business
Manufacturer
SAST
Mission
Spacecraft
Bus & Motor
Unknown
Mass
Unknown
Launch date (UTC)
2022-11-11 (4 years ago)
Launch vehicle
Unknown
Launch site
Taiyaun Space Center, China (TSC)
Object type
Payload
Rocket body
Debris
Shape & HBR
Unknown shape, 0.1 m
Radar Cross Section
Small (<0.1 m²)

Expand to show TLE details & history
Last TLE update: 4 days ago

TLE from 4 days ago
0 CZ-6A DEB
1 56596U 22151ADU 26234.99512960  .00001918  00000-0  88383-3 0  9992
2 56596  98.8132 246.3876 0036945 101.2037 259.3297 14.21879043183694
Epoch: 2026-08-22T23:52Z
TLE epoch observation values (Epoch: 2026-08-22T23:52:59.197Z)
Latitude
0.00003°
Longitude
-83.1566°
Altitude
826.938 km
Speed
7.437 km/s
True Right ascension
16h 25m 33s
True Declination
0° 00' 00"
Sunlit
Object was in daylight at epoch
Visualization orbit readout
Latitude
Unknown
Longitude
Unknown
Altitude
Unknown
Speed
Unknown
Apparent Right ascension
Unknown
Apparent Declination
Unknown
Sunlit
N/A
Visualization observer readout
Local Sidereal Time
09:18:12
Azimuth
Unknown
Elevation
Unknown
Doppler factor
Unknown
Orbital elements
Apogee altitude
842.745 km
Perigee altitude
789.587 km
Semi-major axis
7,194.303 km
Eccentricity
0.00369
Inclination
98.8132°
RAAN
246.3876°
Arg. of periapsis
101.2037°
True anomaly
258.91402°
Mean anomaly
259.3297°
Eccentric anomaly
259.12182°
Mean motion
3.55681 °/min
Orbital period
101.21 mins
BSTAR
0.00088383
Loading maneuver chart data...
Computing Atmospheric mass density...
Loading historical data...
Loading historical data...
Loading historical data...
Loading historical data...
Loading historical data...
Loading historical data...
Loading historical data...

Documentation

Showing up to 5 results
|